Date,TemperatureHighF,TemperatureAvgF,TemperatureLowF,DewpointHighF,DewpointAvgF,DewpointLowF,HumidityHigh,HumidityAvg,HumidityLow,PressureMaxIn,PressureMinIn,WindSpeedMaxMPH,WindSpeedAvgMPH,GustSpeedMaxMPH,PrecipitationSumIn
2013-1-1,65,57,48,59,52,46,96,85,72,30.21,29.97,5,0,5,0.00
2013-1-2,64,59,53,60,55,49,95,88,79,30.15,29.92,7,0,7,0.00
2013-1-3,53,51,47,52,50,47,100,96,88,30.28,30.09,6,0,6,0.17
2013-1-4,56,46,38,47,39,31,100,81,46,30.36,30.26,8,0,8,0.00
2013-1-5,54,40,36,42,35,30,96,85,45,30.42,30.30,5,0,5,0.00
2013-1-6,55,49,46,48,47,42,97,92,64,30.31,30.12,2,0,2,0.08
2013-1-7,56,49,43,46,40,36,89,71,49,30.40,30.19,13,1,13,0.00
2013-1-8,68,54,45,58,48,40,92,81,67,30.40,30.31,8,0,8,0.00
2013-1-9,72,62,54,63,58,52,98,86,72,30.40,30.32,11,0,11,0.01
2013-1-10,68,60,55,62,58,55,100,93,66,30.45,30.35,13,0,13,0.04
2013-1-11,75,64,56,66,61,56,100,91,65,30.35,30.18,6,0,6,0.00
2013-1-12,78,66,58,66,62,58,100,88,64,30.21,30.11,5,0,5,0.01
2013-1-13,75,64,56,66,61,56,100,90,65,30.19,30.08,5,0,5,0.00
2013-1-14,77,66,60,67,63,59,100,90,66,30.21,30.11,8,0,8,0.00
2013-1-15,76,66,60,67,63,59,100,90,71,30.17,30.04,6,0,6,0.00
2013-1-16,76,69,63,66,64,62,100,85,62,30.07,29.96,7,0,7,0.00
2013-1-17,75,62,46,64,57,40,100,84,63,30.04,29.75,13,1,13,0.04
2013-1-18,56,47,40,42,34,26,88,64,33,30.50,30.05,14,1,14,0.00
2013-1-19,60,50,40,50,41,32,96,72,51,30.48,30.23,10,0,10,0.00
2013-1-20,69,54,44,50,43,30,100,72,24,30.23,30.05,7,0,7,0.00
2013-1-21,65,52,40,44,40,35,94,66,34,30.12,29.98,7,0,7,0.00
2013-1-22,56,48,41,37,28,24,59,46,32,30.30,30.06,5,0,5,0.00
2013-1-23,54,44,34,40,29,21,85,57,34,30.39,30.21,7,0,7,0.00
2013-1-24,67,52,37,47,37,23,77,59,31,30.48,30.12,14,2,14,0.00
2013-1-25,53,42,31,46,32,19,80,67,59,30.48,30.16,10,0,10,0.00
2013-1-26,60,48,40,46,39,34,85,72,47,30.32,30.14,7,0,7,0.00
2013-1-27,54,45,38,42,38,33,88,76,61,30.51,30.32,13,1,13,0.00
2013-1-28,63,51,43,56,46,39,95,83,70,30.47,30.30,2,0,6,0.00
2013-1-29,75,62,49,66,59,48,100,91,67,30.30,30.13,7,0,7,0.00
2013-1-30,74,69,60,67,65,57,96,89,75,30.12,29.64,17,1,17,0.15
2013-1-31,60,51,45,57,34,23,96,56,28,30.20,29.73,11,2,11,0.05
2013-2-1,58,48,39,34,26,15,60,44,20,30.38,30.18,13,1,13,0.00
2013-2-2,59,45,32,44,34,18,88,64,45,30.39,30.12,11,0,11,0.00
2013-2-3,62,51,44,42,35,32,83,55,33,30.12,29.93,11,1,11,0.00
2013-2-4,55,46,34,41,35,29,89,68,38,30.17,30.06,7,0,7,0.00
2013-2-5,68,52,39,52,46,37,100,80,46,30.10,29.96,10,0,10,0.00
2013-2-6,71,58,48,55,51,46,100,79,48,30.18,30.04,7,0,7,0.00
2013-2-7,60,55,49,58,54,48,100,98,89,30.17,29.72,10,0,10,1.46
2013-2-8,66,55,48,57,50,47,100,84,59,30.07,29.72,7,1,7,0.05
2013-2-9,62,51,41,50,36,26,91,62,27,30.35,30.07,8,0,8,0.00
2013-2-10,65,54,41,57,48,39,98,82,60,30.41,30.20,13,1,13,0.00
2013-2-11,64,62,60,64,61,57,100,97,83,30.24,30.06,8,0,8,1.44
2013-2-12,60,56,51,60,55,49,100,96,74,30.13,29.89,8,0,8,2.01
2013-2-13,74,60,50,66,55,47,100,85,47,29.90,29.70,13,1,13,0.23
2013-2-14,54,50,45,49,42,38,92,75,58,30.10,29.85,6,0,6,0.00
2013-2-15,60,49,39,46,42,38,100,79,46,30.13,29.99,9,0,9,0.00
2013-2-16,55,44,36,46,40,29,100,86,62,30.07,29.86,7,1,7,0.04
2013-2-17,48,38,30,30,19,9,80,51,24,30.34,30.07,8,1,8,0.00
2013-2-18,54,41,28,36,27,21,85,60,31,30.45,30.29,11,0,11,0.00
2013-2-19,66,52,40,57,49,36,100,91,56,30.29,30.00,12,1,12,0.21
2013-2-20,56,48,36,50,37,26,100,70,31,30.19,30.06,9,0,9,0.01
2013-2-21,61,49,38,49,42,37,100,79,47,30.21,30.11,11,1,11,0.00
2013-2-22,64,56,49,64,52,45,100,90,73,30.22,30.06,17,1,17,0.52
2013-2-23,61,52,46,61,52,46,100,100,100,30.06,29.80,8,0,8,2.53
2013-2-24,66,56,48,57,51,46,100,88,49,30.01,29.78,5,0,5,0.01
2013-2-25,52,48,42,51,47,42,100,95,84,30.10,29.96,13,1,13,0.27
2013-2-26,71,63,48,67,60,47,100,90,64,29.98,29.60,16,2,16,0.77
2013-2-27,63,54,49,53,43,38,84,68,55,29.92,29.71,7,1,7,0.00
2013-2-28,61,53,47,43,37,30,74,55,34,29.92,29.80,11,1,11,0.00
2013-3-1,53,47,41,38,34,31,74,60,47,29.99,29.89,6,0,6,0.00
2013-3-2,51,44,38,36,34,30,82,67,46,29.96,29.86,8,1,8,0.00
2013-3-3,48,41,33,35,29,26,89,63,45,30.04,29.93,10,1,10,0.00
2013-3-4,57,43,30,39,27,20,86,57,26,30.20,30.04,7,0,7,0.00
2013-3-5,64,55,42,57,46,37,99,73,38,30.15,29.73,11,1,11,0.03
2013-3-6,59,48,42,56,32,23,90,54,38,30.09,29.72,14,2,14,0.00
2013-3-7,61,48,36,42,34,30,90,62,36,30.25,30.09,7,0,7,0.00
2013-3-8,61,48,39,40,31,24,92,54,26,30.31,30.17,11,0,11,0.00
2013-3-9,62,49,39,44,38,31,90,65,39,30.34,30.25,12,0,12,0.00
2013-3-10,66,53,41,47,42,39,100,71,38,30.29,30.21,11,1,11,0.00
2013-3-11,70,60,49,60,55,46,100,82,62,30.22,29.92,12,0,12,0.00
2013-3-12,70,65,57,64,59,48,97,82,55,29.95,29.81,14,1,14,0.10
2013-3-13,66,56,44,49,35,27,85,49,25,30.14,29.95,12,1,12,0.00
2013-3-14,56,48,39,36,26,21,78,44,26,30.32,30.11,10,0,10,0.00
2013-3-15,68,52,40,49,38,30,87,62,31,30.26,30.06,7,0,7,0.00
2013-3-16,77,64,56,54,49,44,81,60,36,30.07,29.87,10,1,10,0.00
2013-3-17,75,65,59,59,54,51,83,68,50,30.04,29.95,8,1,8,0.00
2013-3-18,65,61,58,63,58,55,100,90,73,30.08,29.86,11,1,11,0.64
2013-3-19,77,63,55,59,51,32,100,71,26,29.99,29.82,8,0,8,0.02
2013-3-20,64,56,45,40,33,21,83,45,22,30.10,29.84,14,1,14,0.00
2013-3-21,59,50,42,41,26,16,89,44,19,29.96,29.80,12,1,12,0.00
2013-3-22,53,46,39,42,30,20,74,54,43,30.12,29.96,9,1,9,0.00
2013-3-23,57,50,45,53,46,41,100,89,60,30.07,29.89,8,0,8,0.68
2013-3-24,65,54,47,65,54,46,100,98,94,29.89,29.47,13,1,13,2.90
2013-3-25,56,50,44,48,34,19,97,59,27,29.98,29.60,12,2,12,0.00
2013-3-26,52,44,36,32,27,24,69,53,39,30.20,29.98,8,1,8,0.00
2013-3-27,59,47,34,35,30,26,85,55,30,30.30,30.18,7,0,7,0.00
2013-3-28,61,49,39,38,31,25,87,53,27,30.32,30.19,11,0,11,0.00
2013-3-29,64,51,39,45,38,34,95,65,33,30.37,30.22,11,0,11,0.00
2013-3-30,73,60,49,55,48,41,94,69,32,30.25,30.08,6,0,6,0.00
2013-3-31,73,64,57,59,56,52,89,75,59,30.09,29.89,9,1,9,0.02
2013-4-1,78,67,60,63,59,56,97,76,52,29.95,29.84,7,0,7,0.03
2013-4-2,65,58,49,58,49,41,95,75,45,30.14,29.94,13,1,13,0.00
2013-4-3,71,57,50,56,50,44,100,78,55,30.25,30.07,13,1,13,0.00
2013-4-4,62,56,50,62,53,45,100,89,69,30.25,29.85,18,1,18,0.45
2013-4-5,60,51,44,51,48,44,100,89,69,30.03,29.89,11,0,11,0.15
2013-4-6,72,57,45,54,47,35,100,74,28,30.24,30.03,17,1,17,0.00
2013-4-7,72,63,52,61,56,51,100,81,49,30.25,30.14,13,1,13,0.00
2013-4-8,80,66,54,64,59,53,100,80,54,30.19,30.11,2,0,7,0.00
2013-4-9,83,69,58,66,62,57,100,80,46,30.21,30.12,1,0,5,0.00
2013-4-10,81,69,58,66,62,58,100,81,48,30.17,30.01,2,0,8,0.00
2013-4-11,78,70,62,71,68,62,100,91,79,30.01,29.83,9,0,9,0.00
2013-4-12,78,72,68,72,69,67,100,93,81,29.84,29.71,11,1,11,0.72
2013-4-13,77,65,56,67,53,44,97,66,38,30.01,29.81,11,1,11,0.00
2013-4-14,72,64,54,65,59,54,100,86,69,30.09,29.92,13,1,13,0.22
2013-4-15,71,66,63,67,64,61,100,93,72,30.15,29.88,3,0,13,0.63
2013-4-16,77,69,60,66,63,60,100,84,64,30.23,30.15,8,1,11,0.01
2013-4-17,80,70,62,68,64,59,100,83,50,30.23,30.13,12,1,12,0.00
2013-4-18,79,72,66,69,67,64,99,85,64,30.14,30.02,12,1,12,0.00
2013-4-19,80,73,68,73,70,67,100,90,78,30.02,29.84,13,1,13,0.80
2013-4-20,69,56,49,69,51,45,100,86,57,30.24,29.92,7,0,7,0.37
2013-4-21,69,57,46,54,49,45,96,75,52,30.33,30.24,19,2,19,0.00
2013-4-22,69,59,49,53,48,38,80,68,54,30.29,30.12,12,1,12,0.00
2013-4-23,67,59,54,57,53,49,92,81,65,30.21,30.14,9,0,9,0.01
2013-4-24,78,65,50,63,57,50,100,79,45,30.19,30.07,8,0,8,0.00
2013-4-25,82,70,64,71,65,62,100,87,55,30.21,30.08,7,0,7,0.27
2013-4-26,75,66,60,64,54,35,100,72,27,30.37,30.20,13,1,13,0.00
2013-4-27,74,65,58,62,55,48,96,73,43,30.34,30.23,11,1,11,0.01
2013-4-28,76,69,60,66,63,57,97,82,67,30.23,30.02,14,1,14,0.00
2013-4-29,81,70,64,70,66,63,100,90,62,30.04,29.93,9,0,9,0.34
2013-4-30,75,68,64,67,64,60,100,90,71,30.08,29.95,12,0,12,0.02
2013-5-1,72,66,60,63,61,58,96,84,65,30.17,30.06,11,1,11,0.00
2013-5-2,74,68,63,65,63,59,94,85,71,30.16,30.10,18,2,18,0.00
2013-5-3,69,64,60,63,59,52,99,85,68,30.10,30.00,18,2,18,0.02
2013-5-4,66,63,59,62,59,54,97,88,75,30.00,29.89,20,2,20,0.06
2013-5-5,71,66,63,66,64,61,100,93,79,29.89,29.78,12,2,12,0.92
2013-5-6,71,64,58,64,57,50,100,80,50,29.93,29.82,7,0,7,0.00
2013-5-7,70,62,54,60,56,51,97,83,65,29.98,29.90,6,0,6,0.07
2013-5-8,77,66,52,63,58,51,98,77,51,30.05,29.97,7,0,7,0.00
2013-5-9,84,72,63,67,63,60,95,74,45,30.09,30.01,6,0,6,0.00
2013-5-10,86,74,64,69,64,62,93,72,46,30.09,30.00,7,0,7,0.00
2013-5-11,82,75,70,70,67,62,96,78,53,30.01,29.87,7,0,7,0.00
2013-5-12,82,75,68,70,62,53,89,67,42,29.99,29.84,7,0,7,0.00
2013-5-13,74,65,57,53,46,40,72,50,32,30.14,29.98,9,0,9,0.00
2013-5-14,74,63,49,56,50,45,90,65,36,30.25,30.13,11,1,11,0.00
2013-5-15,84,71,60,64,59,54,93,68,44,30.18,30.01,7,0,7,0.00
2013-5-16,84,75,67,69,64,59,89,70,52,30.06,29.98,5,0,5,0.00
2013-5-17,87,75,67,72,67,64,96,78,55,30.10,30.02,8,0,8,0.00
2013-5-18,83,75,68,71,68,65,99,81,59,30.14,30.06,8,0,8,0.00
2013-5-19,82,76,70,72,70,66,92,81,67,30.12,30.04,11,0,11,0.00
2013-5-20,81,76,72,74,71,69,96,86,72,30.09,30.02,8,0,8,0.03
2013-5-21,75,72,67,75,71,66,100,95,82,30.09,29.98,10,0,10,1.00
2013-5-22,84,75,66,74,69,66,100,83,59,30.01,29.92,11,0,11,0.00
2013-5-23,85,76,69,73,70,66,100,83,55,29.95,29.83,7,0,7,0.00
2013-5-24,82,75,67,72,59,40,92,58,29,30.15,29.85,7,0,7,0.00
2013-5-25,77,67,57,58,49,38,77,54,25,30.29,30.15,10,0,10,0.00
2013-5-26,82,70,58,64,60,56,97,70,45,30.25,30.13,10,0,10,0.00
2013-5-27,83,73,62,69,64,61,100,75,53,30.24,30.15,9,0,9,0.00
2013-5-28,84,75,66,70,66,62,99,75,50,30.23,30.16,11,1,11,0.00
2013-5-29,81,72,66,69,66,65,99,84,61,30.24,30.15,10,0,10,0.00
2013-5-30,84,77,69,73,70,66,100,82,66,30.24,30.16,11,1,11,0.00
2013-5-31,86,78,70,74,71,69,99,82,61,30.21,30.12,12,1,12,0.00
2013-6-1,85,77,69,73,70,68,99,81,62,30.14,30.06,11,1,11,0.00
2013-6-2,85,78,71,76,72,69,98,84,66,30.09,29.92,13,0,13,0.01
2013-6-3,82,76,71,76,74,70,100,94,75,29.95,29.84,8,0,8,1.12
2013-6-4,85,76,72,78,75,69,100,97,74,30.02,29.89,16,0,16,1.26
2013-6-5,81,76,72,77,74,72,100,94,76,30.02,29.93,14,1,14,0.54
2013-6-6,79,75,72,76,73,70,100,95,84,29.95,29.67,12,1,12,1.72
2013-6-7,84,77,73,76,74,70,100,90,67,29.86,29.50,24,1,24,0.28
2013-6-8,86,80,75,77,74,72,94,83,67,30.08,29.85,6,0,6,0.00
2013-6-9,87,80,76,77,75,73,97,85,67,30.12,30.05,13,0,13,0.00
2013-6-10,86,79,71,77,75,70,99,86,74,30.09,29.96,13,0,13,0.46
2013-6-11,87,78,72,78,74,72,100,91,64,30.03,29.91,5,0,5,0.84
2013-6-12,92,83,74,80,76,72,100,82,53,29.98,29.89,4,0,4,0.01
2013-6-13,94,86,79,80,78,73,96,79,54,29.91,29.71,7,0,7,0.00
2013-6-14,86,80,73,78,67,57,86,66,38,29.98,29.71,10,0,10,0.00
2013-6-15,83,76,69,70,64,55,95,69,44,30.11,29.98,14,1,14,0.00
2013-6-16,86,76,67,69,66,62,96,72,52,30.15,30.05,11,0,11,0.00
2013-6-17,86,78,72,77,73,68,98,84,65,30.07,29.96,7,0,7,0.23
2013-6-18,87,79,71,78,75,71,100,90,66,29.99,29.85,7,0,7,1.67
2013-6-19,88,78,73,78,74,72,100,88,65,30.02,29.87,6,0,6,2.24
2013-6-20,81,75,72,73,71,68,100,89,74,30.14,30.00,11,1,11,0.03
2013-6-21,84,77,71,74,71,66,92,81,65,30.15,30.09,11,0,11,0.01
2013-6-22,84,77,72,77,73,71,97,87,66,30.14,30.07,6,0,6,0.05
2013-6-23,88,80,74,77,75,72,99,85,65,30.16,30.09,13,1,13,0.00
2013-6-24,86,80,75,77,75,73,97,85,71,30.21,30.12,8,0,8,0.00
2013-6-25,88,80,75,78,75,73,97,85,70,30.15,30.04,8,0,8,0.07
2013-6-26,89,78,70,79,74,68,100,87,63,30.07,29.95,12,0,12,1.59
2013-6-27,89,80,75,81,77,73,100,91,66,29.98,29.79,7,0,7,0.12
2013-6-28,90,83,78,80,76,72,91,80,68,29.82,29.65,7,0,7,0.00
2013-6-29,87,79,73,78,74,70,97,85,69,29.76,29.67,8,0,8,0.09
2013-6-30,83,77,73,79,75,71,100,95,82,29.84,29.71,8,0,8,1.36
2013-7-1,84,79,74,78,75,72,99,90,78,30.00,29.81,11,0,11,0.30
2013-7-2,82,78,75,76,75,72,99,91,76,30.13,29.99,14,0,14,0.11
2013-7-3,86,79,75,79,76,74,100,92,73,30.19,30.10,12,0,12,0.35
2013-7-4,86,80,75,78,76,74,100,87,71,30.20,30.15,14,1,14,0.01
2013-7-5,88,81,76,79,76,74,96,86,67,30.21,30.15,12,1,12,0.21
2013-7-6,86,80,75,78,74,72,97,84,69,30.20,30.11,16,1,16,0.05
2013-7-7,88,80,74,76,74,72,97,80,61,30.17,30.09,10,0,10,0.00
2013-7-8,87,80,72,76,73,71,98,82,64,30.17,30.10,8,0,8,0.00
2013-7-9,88,80,73,76,74,71,98,82,64,30.18,30.08,8,0,8,0.00
2013-7-10,89,81,74,76,74,72,97,79,60,30.12,29.96,8,0,8,0.00
2013-7-11,89,82,76,78,75,72,91,80,65,30.00,29.87,7,0,7,0.00
2013-7-12,81,76,75,77,75,72,99,94,82,29.94,29.86,5,0,5,0.79
2013-7-13,84,78,74,78,75,73,100,93,75,30.06,29.92,13,1,13,0.08
2013-7-14,86,80,75,78,75,72,97,84,71,30.19,30.05,17,3,17,0.16
2013-7-15,88,82,77,78,76,72,95,82,67,30.22,30.16,14,2,14,0.00
2013-7-16,89,82,76,78,75,72,96,81,62,30.25,30.18,12,1,12,0.00
2013-7-17,93,81,74,79,75,71,98,84,58,30.20,30.08,8,0,8,0.12
2013-7-18,89,80,72,78,74,71,100,85,65,30.14,30.06,7,0,7,0.00
2013-7-19,87,80,75,78,74,73,98,84,67,30.12,30.01,10,0,10,0.15
2013-7-20,87,80,77,77,74,71,92,83,66,30.07,29.98,7,0,7,0.03
2013-7-21,86,79,75,78,74,72,96,87,72,30.03,29.93,6,0,6,0.24
2013-7-22,88,81,76,76,74,72,94,81,63,30.00,29.90,6,0,6,0.00
2013-7-23,88,81,77,76,74,72,90,78,61,29.93,29.78,5,0,5,0.00
2013-7-24,84,80,75,77,74,71,91,82,74,29.83,29.73,5,0,5,0.00
2013-7-25,90,80,74,80,74,69,95,83,62,29.96,29.75,8,0,8,0.01
2013-7-26,87,80,74,77,75,73,96,85,69,30.04,29.95,17,2,17,0.00
2013-7-27,87,82,76,77,76,74,96,83,68,30.02,29.89,12,1,12,0.00
2013-7-28,86,81,77,78,76,74,95,85,70,30.00,29.90,7,0,7,0.00
2013-7-29,91,79,75,79,76,73,99,91,60,30.13,29.99,5,0,5,0.36
2013-7-30,88,80,74,78,76,74,100,90,69,30.16,30.09,12,0,12,0.03
2013-7-31,86,79,74,79,76,72,99,91,69,30.11,30.01,8,0,8,0.47
2013-8-1,83,78,73,76,75,73,100,91,76,30.01,29.91,3,0,3,0.01
2013-8-2,88,81,75,78,76,74,96,84,66,30.02,29.92,7,0,7,0.00
2013-8-3,89,82,75,81,77,74,97,87,69,30.02,29.92,8,0,8,0.81
2013-8-4,90,83,76,79,76,74,97,82,63,29.98,29.86,8,0,8,0.01
2013-8-5,86,81,78,75,70,64,87,71,55,30.03,29.94,16,2,16,0.00
2013-8-6,87,81,74,73,71,68,90,72,58,30.03,29.94,11,1,11,0.00
2013-8-7,88,81,74,74,72,67,93,74,51,30.04,29.98,12,1,12,0.00
2013-8-8,89,81,75,78,76,72,98,84,66,30.05,29.98,8,0,8,0.00
2013-8-9,90,83,77,79,76,73,96,82,62,30.09,30.00,10,0,10,0.06
2013-8-10,90,83,76,79,76,75,98,82,65,30.11,30.05,8,0,8,0.00
2013-8-11,94,85,79,79,77,71,96,79,49,30.13,30.02,6,0,6,0.00
2013-8-12,94,86,79,80,77,74,90,77,53,30.08,29.93,6,0,6,0.00
2013-8-13,93,85,78,80,78,74,95,79,56,29.96,29.82,6,0,6,0.01
2013-8-14,89,80,75,80,76,74,100,88,68,29.98,29.84,7,0,7,2.60
2013-8-15,74,69,65,74,69,65,100,100,100,30.06,29.94,7,0,7,2.14
2013-8-16,79,72,67,76,71,67,100,96,86,30.07,29.98,8,0,8,0.08
2013-8-17,79,74,72,74,73,72,100,96,84,30.13,30.00,3,0,3,0.04
2013-8-18,87,78,72,78,74,70,100,88,63,30.17,30.09,13,1,13,0.50
2013-8-19,88,80,75,80,76,74,100,90,65,30.12,30.01,7,0,7,0.21
2013-8-20,89,80,75,78,76,74,100,88,69,30.13,30.03,10,0,10,0.01
2013-8-21,90,82,76,80,76,74,100,83,63,30.18,30.09,11,0,11,0.00
2013-8-22,89,80,75,77,75,72,99,86,60,30.13,30.01,6,0,6,0.13
2013-8-23,89,81,74,76,74,72,96,81,59,30.03,29.93,5,0,5,0.00
2013-8-24,82,78,73,75,73,70,98,85,69,30.18,29.99,10,0,10,0.67
2013-8-25,84,76,69,70,68,63,94,76,52,30.26,30.18,12,1,12,0.01
2013-8-26,84,76,70,71,68,64,88,76,60,30.23,30.10,11,1,11,0.06
2013-8-27,84,76,68,72,68,65,99,77,54,30.12,30.00,7,0,7,0.00
2013-8-28,88,79,72,75,71,68,94,77,58,30.02,29.93,5,0,5,0.00
2013-8-29,91,81,74,81,74,72,99,82,57,29.95,29.83,6,0,6,0.73
2013-8-30,88,80,76,78,76,73,100,89,69,29.98,29.88,16,1,16,0.01
2013-8-31,89,80,74,77,75,72,100,86,58,29.96,29.86,7,0,7,0.01
2013-9-1,90,82,77,80,77,74,97,83,62,29.93,29.83,10,0,10,0.00
2013-9-2,89,80,71,81,76,69,100,87,65,29.92,29.82,11,0,11,2.13
2013-9-3,90,79,73,80,75,72,100,88,61,29.93,29.81,6,0,6,0.10
2013-9-4,91,81,73,78,75,70,97,83,59,30.06,29.92,7,0,7,0.03
2013-9-5,90,82,75,79,76,74,98,83,62,30.06,29.98,8,0,8,0.02
2013-9-6,89,80,73,74,70,64,95,75,47,30.07,29.98,7,0,7,0.00
2013-9-7,86,78,72,74,71,63,97,80,48,30.05,29.95,10,0,10,0.00
2013-9-8,88,78,69,74,71,68,98,81,55,29.98,29.88,6,0,6,0.01
2013-9-9,87,79,72,75,72,69,98,79,63,30.10,29.95,14,1,14,0.00
2013-9-10,88,80,73,75,73,69,95,79,56,30.18,30.09,16,1,16,0.00
2013-9-11,87,80,73,76,72,67,97,80,52,30.15,30.06,11,1,11,0.00
2013-9-12,89,79,72,74,72,69,98,79,55,30.06,29.86,8,0,8,0.00
2013-9-13,89,80,75,77,74,72,93,83,60,29.87,29.71,6,0,6,0.02
2013-9-14,84,76,69,75,70,63,97,83,70,30.02,29.76,11,0,11,0.81
2013-9-15,88,78,70,75,73,68,96,83,60,30.11,30.02,14,1,14,0.03
2013-9-16,89,79,74,78,75,71,100,87,58,30.09,29.99,7,0,7,0.49
2013-9-17,79,74,68,74,68,63,100,84,61,30.18,30.04,17,1,17,0.03
2013-9-18,77,71,63,65,60,52,90,70,45,30.19,30.11,11,0,11,0.01
2013-9-19,83,74,66,68,65,61,91,76,59,30.14,30.05,6,0,8,0.00
2013-9-20,85,75,67,71,67,64,100,79,54,30.07,29.93,11,0,11,0.00
2013-9-21,85,77,69,73,70,68,99,82,61,29.94,29.70,11,0,11,0.00
2013-9-22,79,74,69,74,70,67,100,88,72,29.84,29.67,7,0,7,0.14
2013-9-23,81,73,65,68,63,59,95,73,51,30.01,29.83,13,1,13,0.00
2013-9-24,79,72,67,66,64,62,88,75,62,30.02,29.89,14,1,14,0.00
2013-9-25,78,73,69,69,67,64,90,81,71,29.89,29.76,10,0,10,0.00
2013-9-26,73,68,64,68,66,62,100,93,79,29.93,29.76,7,0,7,0.74
2013-9-27,77,70,62,66,62,59,92,78,62,30.08,29.92,10,0,10,0.00
2013-9-28,75,68,61,64,61,57,89,77,66,30.13,30.06,11,0,11,0.00
2013-9-29,77,68,62,61,60,58,95,77,52,30.09,29.99,8,0,8,0.00
2013-9-30,77,66,57,62,59,56,99,80,53,30.06,29.97,10,0,10,0.00
2013-10-1,79,69,60,63,61,58,98,77,49,30.12,30.02,8,0,8,0.00
2013-10-2,84,71,60,66,63,59,99,79,51,30.13,30.04,9,0,9,0.00
2013-10-3,84,73,64,71,67,62,100,84,62,30.12,30.05,12,0,12,0.00
2013-10-4,86,75,67,73,70,66,100,86,57,30.11,30.04,8,0,8,0.00
2013-10-5,86,75,68,73,70,66,100,85,57,30.10,30.01,11,1,11,0.00
2013-10-6,84,76,69,78,73,69,100,89,71,30.03,29.90,10,0,10,0.16
2013-10-7,78,75,73,76,74,73,100,97,89,29.91,29.78,8,0,8,1.00
2013-10-8,75,67,60,74,64,57,97,91,84,30.04,29.81,11,1,11,0.00
2013-10-9,74,66,58,64,59,55,94,81,68,30.09,30.00,10,0,10,0.00
2013-10-10,76,66,57,63,59,55,93,79,57,30.04,29.93,8,0,8,0.00
2013-10-11,80,70,63,66,63,61,96,81,58,30.00,29.89,6,0,6,0.00
2013-10-12,82,72,65,69,67,64,97,85,61,30.03,29.92,6,0,6,0.00
2013-10-13,77,71,67,69,67,65,95,86,71,30.11,30.01,7,0,7,0.00
2013-10-14,74,70,67,69,66,64,91,87,79,30.10,30.02,8,0,8,0.01
2013-10-15,72,67,63,64,62,60,94,84,67,30.09,29.98,8,0,8,0.00
2013-10-16,74,68,63,66,64,62,99,86,74,30.02,29.94,7,0,7,0.00
2013-10-17,80,70,61,70,65,60,100,86,67,29.98,29.87,8,0,8,0.00
2013-10-18,82,75,70,73,71,69,99,89,66,29.97,29.89,5,0,5,0.00
2013-10-19,81,74,66,73,71,66,99,91,71,29.93,29.84,5,0,5,0.21
2013-10-20,72,66,61,66,60,56,98,82,68,30.06,29.89,10,0,10,0.00
2013-10-21,70,66,62,64,60,56,88,83,79,30.10,30.00,6,0,6,0.00
2013-10-22,67,65,63,63,61,59,96,88,77,30.01,29.84,3,0,3,0.05
2013-10-23,71,64,56,62,54,41,100,73,36,30.01,29.76,8,0,8,0.02
2013-10-24,64,55,47,49,42,36,91,62,39,30.20,30.01,7,0,7,0.00
2013-10-25,61,54,49,52,44,38,96,71,45,30.34,30.15,11,0,11,0.00
2013-10-26,65,53,42,50,43,37,89,69,47,30.33,30.14,6,0,6,0.00
2013-10-27,72,57,44,57,49,42,96,77,49,30.16,30.06,3,0,3,0.00
2013-10-28,75,64,56,62,58,54,97,83,58,30.24,30.13,3,0,3,0.00
2013-10-29,76,63,54,62,58,53,100,83,53,30.32,30.22,7,0,7,0.00
2013-10-30,77,64,55,65,59,54,100,84,54,30.32,30.18,7,0,7,0.00
2013-10-31,80,69,57,69,64,56,100,85,64,30.20,29.98,7,0,7,0.00
2013-11-1,78,74,72,72,70,68,96,87,74,29.98,29.74,8,1,8,0.07
2013-11-2,72,65,55,71,62,53,100,90,62,29.95,29.72,3,0,3,0.59
2013-11-3,65,57,50,53,46,41,92,70,43,30.28,29.95,7,0,7,0.00
2013-11-4,64,57,51,49,45,38,81,65,39,30.41,30.27,12,1,12,0.00
2013-11-5,64,55,45,60,51,41,97,87,72,30.43,30.31,11,0,11,0.04
2013-11-6,74,65,56,67,61,55,99,88,74,30.31,30.08,7,0,7,0.00
2013-11-7,75,68,63,66,64,60,99,89,69,30.08,29.93,3,0,3,0.01
2013-11-8,63,54,44,59,40,34,92,61,37,30.31,30.03,12,0,12,0.00
2013-11-9,64,55,44,54,47,40,92,77,57,30.34,30.23,7,0,7,0.00
2013-11-10,68,59,51,57,52,48,96,80,51,30.25,30.14,5,0,5,0.00
2013-11-11,66,57,49,54,48,40,93,74,60,30.29,30.16,8,0,8,0.00
2013-11-12,70,58,44,54,47,32,97,70,45,30.33,30.00,14,0,14,0.00
2013-11-13,49,42,36,33,27,19,77,57,33,30.52,30.33,16,1,16,0.00
2013-11-14,60,47,33,48,39,28,93,73,52,30.50,30.32,8,0,8,0.00
2013-11-15,65,58,49,61,56,47,98,92,86,30.33,30.15,4,0,4,0.01
2013-11-16,74,64,59,64,61,58,100,90,68,30.22,30.14,8,0,8,0.01
2013-11-17,75,66,58,71,65,58,100,96,84,30.18,29.98,7,0,7,0.02
2013-11-18,81,72,65,71,68,50,100,88,60,29.98,29.81,5,0,5,0.01
2013-11-19,65,57,50,51,40,36,77,54,41,30.18,29.90,13,0,13,0.00
2013-11-20,59,53,46,50,44,37,79,73,66,30.32,30.18,11,1,11,0.00
2013-11-21,70,60,52,62,55,47,96,84,72,30.38,30.30,7,0,7,0.00
2013-11-22,73,66,60,66,63,59,100,92,76,30.34,30.15,9,0,9,0.02
2013-11-23,70,64,58,67,62,53,100,94,83,30.15,29.99,7,0,7,0.04
2013-11-24,58,45,36,53,26,16,83,48,29,30.52,30.09,16,1,16,0.00
2013-11-25,49,42,33,45,29,12,90,61,38,30.52,30.24,14,1,14,0.00
2013-11-26,70,60,46,70,60,44,100,97,90,30.24,29.61,16,1,16,1.87
2013-11-27,68,54,40,68,51,35,100,90,80,30.21,29.51,12,1,12,0.07
2013-11-28,48,39,33,35,28,22,93,68,41,30.50,30.21,11,0,11,0.00
2013-11-29,58,45,34,40,35,32,95,71,49,30.52,30.44,3,0,7,0.00
2013-11-30,58,48,38,44,39,32,82,72,58,30.52,30.31,9,1,9,0.00
2013-12-1,61,54,48,56,49,42,92,83,75,30.32,30.01,6,0,6,0.00
2013-12-2,64,55,48,54,50,44,96,83,53,30.01,29.82,6,0,6,0.00
2013-12-3,67,57,46,56,52,45,100,84,58,29.99,29.90,6,0,6,0.01
2013-12-4,75,64,57,65,60,56,100,88,68,30.10,29.98,4,0,4,0.00
2013-12-5,75,67,57,69,64,57,100,92,72,30.17,30.08,5,0,5,0.01
2013-12-6,76,70,67,70,67,64,98,89,79,30.15,30.07,7,0,7,0.00
2013-12-7,78,65,50,71,62,50,100,92,75,30.33,30.09,8,0,8,0.21
2013-12-8,50,47,46,50,47,46,100,99,97,30.34,30.24,10,0,10,0.08
2013-12-9,75,57,46,68,56,45,100,96,76,30.26,30.06,5,0,6,0.00
2013-12-10,72,63,50,68,60,46,100,89,66,30.31,29.97,10,1,10,0.06
2013-12-11,55,49,40,46,40,33,91,72,45,30.44,30.30,11,0,11,0.00
2013-12-12,55,46,38,43,35,27,95,69,35,30.42,30.27,10,0,10,0.00
2013-12-13,57,46,34,42,36,29,93,70,36,30.41,30.25,8,0,8,0.00
2013-12-14,70,61,48,68,59,42,100,92,75,30.25,29.79,13,1,13,0.61
2013-12-15,65,57,46,65,53,42,100,87,71,30.14,29.78,7,1,7,0.05
2013-12-16,62,48,37,46,40,36,96,78,41,30.23,30.14,3,0,3,0.00
2013-12-17,67,52,40,47,41,36,95,68,34,30.24,30.10,7,0,7,0.00
2013-12-18,58,50,40,40,36,28,91,60,36,30.34,30.12,10,0,10,0.00
2013-12-19,63,49,36,50,43,35,100,80,51,30.37,30.25,7,0,7,0.00
2013-12-20,72,59,48,61,54,47,100,86,62,30.27,30.17,4,0,4,0.00
2013-12-21,77,66,55,69,63,54,100,90,75,30.18,30.07,7,0,7,0.00
2013-12-22,78,72,68,72,69,66,97,91,79,30.12,30.07,12,1,12,0.00
2013-12-23,76,68,58,70,66,58,99,94,81,30.12,30.03,9,1,9,0.19
2013-12-24,60,54,44,58,45,34,100,76,44,30.36,30.07,10,0,10,0.04
2013-12-25,52,43,34,37,32,25,74,66,58,30.47,30.33,10,1,10,0.00
2013-12-26,51,46,42,45,40,32,89,80,68,30.34,30.24,8,0,8,0.00
2013-12-27,57,49,42,40,36,34,81,62,43,30.41,30.32,10,0,10,0.00
2013-12-28,62,52,39,56,45,34,98,77,61,30.40,30.04,10,0,10,0.05
2013-12-29,74,64,53,69,61,50,100,89,60,30.04,29.80,16,1,16,0.33
2013-12-30,60,53,46,50,46,44,96,81,60,30.18,29.98,5,0,6,0.00
2013-12-31,56,52,47,48,45,42,91,78,60,30.39,30.17,6,0,6,0.00
2014-1-1,54,49,46,49,46,43,100,90,77,30.38,30.15,6,0,6,0.18
2014-1-2,59,53,49,59,52,42,100,98,75,30.15,29.69,13,1,13,0.63